Back to catalog

STARLINK-31030

AliveCommunicationsVLEO
NORAD 58542·PAYLOAD·🇺🇸 United States

Launched Dec 8, 2023 from Vandenberg Space Force Base

Loading…

Next Passes (next 24 hours)

TLE

FreshSource: CelesTrak SupGP

Epoch: Sep 14, 2026, 15:14 UTC

1 58542C 23192M   26257.63520833 -.00032707  00000+0 -96659-3 0  2578
2 58542  53.1569 261.0155 0001271  88.4273 194.0142 15.34398322    10

Track STARLINK-31030 in real time with AllMySat

Download on the App Store